Total_Precipitation_Accumulation
0.16 0.28 0.38 0.43 0.59 0.23 0.01 0.01 0.02 0.01 0.01 0.00 0.00 0.00 0.02 0.06 0.18 0.37 0.09 0.03 0.01 0.00 0.01 0.05 0.13 0.15 0.15 0.17 0.20 0.28 0.32 0.40 0.35 0.29 0.21 0.16 0.15 0.15 0.12 0.10 0.11 0.11 0.09 0.09 0.13 0.24 0.25 0.25 0.34
0.27 0.61 0.53 0.68 0.49 0.06 0.03 0.04 0.04 0.03 0.02 0.02 0.01 0.01 0.02 0.04 0.03 0.05 0.08 0.07 0.02 0.01 0.01 0.04 0.13 0.13 0.14 0.17 0.25 0.35 0.36 0.47 0.46 0.28 0.16 0.10 0.13 0.21 0.18 0.17 0.26 0.15 0.07 0.07 0.11 0.21 0.26 0.25 0.29
0.41 0.63 0.64 0.63 0.18 0.07 0.09 0.08 0.07 0.06 0.03 0.02 0.01 0.01 0.03 0.06 0.07 0.10 0.13 0.06 0.02 0.02 0.03 0.10 0.20 0.16 0.15 0.16 0.27 0.37 0.42 0.48 0.43 0.21 0.07 0.05 0.13 0.22 0.25 0.28 0.31 0.11 0.06 0.05 0.07 0.15 0.22 0.22 0.22
0.41 0.59 0.63 0.36 0.13 0.13 0.17 0.16 0.09 0.06 0.02 0.01 0.01 0.03 0.04 0.06 0.09 0.12 0.10 0.08 0.04 0.04 0.06 0.12 0.22 0.20 0.18 0.17 0.30 0.38 0.44 0.49 0.41 0.19 0.07 0.07 0.15 0.19 0.19 0.28 0.17 0.09 0.07 0.05 0.05 0.10 0.15 0.14 0.16
0.35 0.59 0.57 0.33 0.24 0.26 0.29 0.22 0.11 0.08 0.05 0.03 0.01 0.04 0.07 0.08 0.15 0.19 0.20 0.18 0.14 0.13 0.11 0.14 0.21 0.23 0.23 0.23 0.36 0.44 0.46 0.47 0.37 0.18 0.10 0.08 0.10 0.12 0.15 0.20 0.09 0.05 0.04 0.03 0.04 0.08 0.09 0.11 0.14
0.33 0.58 0.71 0.51 0.35 0.37 0.39 0.29 0.18 0.14 0.09 0.07 0.06 0.08 0.10 0.15 0.26 0.31 0.33 0.36 0.42 0.38 0.27 0.21 0.23 0.27 0.30 0.33 0.42 0.45 0.44 0.41 0.35 0.19 0.11 0.10 0.10 0.09 0.15 0.16 0.06 0.04 0.02 0.02 0.02 0.06 0.09 0.11 0.11
0.27 0.54 0.71 0.45 0.42 0.51 0.47 0.29 0.23 0.17 0.14 0.14 0.13 0.15 0.20 0.24 0.34 0.44 0.53 0.56 0.63 0.61 0.51 0.34 0.32 0.33 0.39 0.48 0.51 0.52 0.49 0.45 0.38 0.24 0.15 0.10 0.09 0.08 0.11 0.09 0.02 0.01 0.01 0.01 0.01 0.04 0.05 0.06 0.09
0.14 0.25 0.45 0.49 0.50 0.65 0.39 0.26 0.17 0.14 0.14 0.16 0.16 0.26 0.34 0.33 0.36 0.47 0.67 0.76 0.80 0.77 0.68 0.57 0.50 0.49 0.49 0.49 0.56 0.63 0.63 0.57 0.49 0.35 0.24 0.17 0.12 0.06 0.07 0.03 0.01 0.01 0.01 0.01 0.01 0.03 0.02 0.03 0.06
0.16 0.25 0.57 0.77 0.60 0.50 0.29 0.24 0.16 0.13 0.17 0.22 0.17 0.22 0.30 0.29 0.36 0.46 0.55 0.66 0.73 0.70 0.68 0.73 0.71 0.70 0.69 0.61 0.62 0.74 0.77 0.73 0.55 0.42 0.33 0.26 0.18 0.10 0.08 0.04 0.02 0.02 0.01 0.02 0.03 0.03 0.03 0.02 0.03
0.22 0.36 0.62 0.58 0.45 0.35 0.25 0.21 0.17 0.14 0.18 0.19 0.17 0.22 0.33 0.30 0.38 0.47 0.51 0.56 0.55 0.56 0.57 0.64 0.69 0.76 0.78 0.69 0.87 1.05 0.90 0.76 0.52 0.50 0.38 0.29 0.24 0.21 0.13 0.09 0.09 0.07 0.05 0.03 0.03 0.03 0.01 0.00 0.00
0.18 0.31 0.35 0.39 0.35 0.24 0.19 0.18 0.20 0.16 0.17 0.17 0.19 0.21 0.27 0.32 0.37 0.42 0.46 0.54 0.56 0.57 0.54 0.54 0.59 0.65 0.72 0.83 1.04 1.28 1.31 1.08 0.87 0.67 0.52 0.44 0.31 0.20 0.14 0.11 0.11 0.10 0.10 0.04 0.01 0.01 0.00 0.00 0.00
0.12 0.17 0.19 0.24 0.25 0.21 0.16 0.12 0.12 0.12 0.15 0.15 0.17 0.20 0.26 0.34 0.40 0.43 0.45 0.48 0.50 0.52 0.56 0.47 0.43 0.53 0.60 0.67 0.77 1.03 1.09 1.00 0.86 0.66 0.54 0.53 0.41 0.30 0.23 0.18 0.17 0.12 0.08 0.06 0.02 0.01 0.00 0.00 0.01
0.17 0.15 0.14 0.17 0.19 0.17 0.12 0.11 0.11 0.12 0.14 0.13 0.15 0.21 0.28 0.35 0.39 0.41 0.41 0.45 0.49 0.56 0.59 0.54 0.45 0.45 0.48 0.51 0.57 0.70 0.84 0.92 0.91 0.82 0.61 0.56 0.50 0.42 0.35 0.27 0.24 0.16 0.10 0.08 0.06 0.03 0.02 0.01 0.01
0.13 0.12 0.13 0.17 0.17 0.15 0.11 0.09 0.12 0.16 0.17 0.16 0.17 0.23 0.29 0.36 0.40 0.46 0.47 0.49 0.47 0.51 0.63 0.62 0.52 0.48 0.49 0.46 0.46 0.46 0.58 0.71 0.85 0.83 0.70 0.68 0.66 0.56 0.48 0.39 0.33 0.29 0.23 0.18 0.15 0.09 0.05 0.01 0.01
0.10 0.12 0.15 0.15 0.16 0.16 0.15 0.14 0.15 0.18 0.20 0.21 0.22 0.24 0.29 0.35 0.39 0.47 0.50 0.47 0.45 0.45 0.50 0.57 0.54 0.56 0.60 0.59 0.58 0.47 0.50 0.57 0.68 0.77 0.74 0.76 0.69 0.57 0.51 0.47 0.40 0.35 0.33 0.30 0.27 0.20 0.10 0.04 0.02
0.11 0.16 0.26 0.23 0.21 0.25 0.26 0.21 0.19 0.23 0.20 0.21 0.26 0.28 0.30 0.33 0.36 0.43 0.47 0.46 0.47 0.46 0.50 0.54 0.56 0.62 0.68 0.73 0.74 0.68 0.72 0.72 0.72 0.83 0.80 0.74 0.73 0.67 0.63 0.60 0.54 0.47 0.44 0.37 0.33 0.30 0.22 0.12 0.06
0.15 0.17 0.22 0.22 0.19 0.23 0.24 0.21 0.23 0.26 0.22 0.20 0.22 0.25 0.24 0.24 0.26 0.32 0.38 0.40 0.42 0.42 0.44 0.48 0.56 0.60 0.63 0.71 0.83 0.95 0.98 0.97 0.92 0.94 0.87 0.77 0.75 0.79 0.85 0.80 0.78 0.69 0.62 0.53 0.43 0.36 0.29 0.22 0.15
0.32 0.17 0.13 0.13 0.14 0.15 0.18 0.21 0.23 0.24 0.21 0.17 0.17 0.18 0.19 0.18 0.19 0.22 0.25 0.29 0.31 0.33 0.36 0.41 0.48 0.64 0.78 0.86 0.90 1.04 1.08 1.14 1.22 1.26 1.12 1.01 1.00 1.12 1.22 1.21 1.11 1.03 0.95 0.83 0.70 0.60 0.48 0.34 0.27
0.22 0.17 0.14 0.13 0.15 0.14 0.13 0.15 0.16 0.16 0.15 0.14 0.13 0.11 0.13 0.12 0.11 0.12 0.14 0.18 0.20 0.21 0.27 0.33 0.38 0.53 0.67 0.75 0.87 1.07 1.23 1.39 1.52 1.65 1.54 1.41 1.36 1.50 1.57 1.48 1.50 1.43 1.22 1.12 1.08 1.01 0.89 0.61 0.38
0.16 0.16 0.15 0.11 0.10 0.09 0.10 0.11 0.12 0.11 0.10 0.10 0.10 0.10 0.09 0.09 0.07 0.06 0.06 0.09 0.10 0.11 0.15 0.22 0.29 0.40 0.52 0.65 0.88 1.10 1.38 1.46 1.52 1.66 1.73 1.66 1.59 1.71 1.71 1.78 1.79 1.76 1.68 1.55 1.35 1.29 1.32 1.01 0.65
0.11 0.15 0.15 0.12 0.08 0.06 0.06 0.07 0.08 0.09 0.09 0.07 0.07 0.09 0.09 0.07 0.06 0.04 0.04 0.05 0.07 0.07 0.09 0.16 0.26 0.42 0.62 0.84 1.13 1.41 1.65 1.71 1.74 1.67 1.75 1.84 1.89 1.93 1.93 1.98 1.99 1.93 1.74 1.66 1.67 1.64 1.84 1.55 1.09
0.14 0.09 0.08 0.09 0.09 0.08 0.09 0.12 0.09 0.11 0.13 0.12 0.11 0.12 0.14 0.12 0.08 0.06 0.06 0.07 0.08 0.10 0.15 0.24 0.38 0.58 0.85 1.18 1.51 1.73 1.95 2.03 1.85 1.83 1.87 1.87 1.83 1.86 1.95 1.95 1.92 1.87 1.76 1.78 1.82 1.74 1.94 1.99 1.59
0.06 0.05 0.06 0.07 0.08 0.06 0.05 0.09 0.10 0.14 0.21 0.22 0.19 0.19 0.20 0.18 0.14 0.12 0.13 0.15 0.19 0.24 0.31 0.46 0.68 0.98 1.25 1.47 1.64 1.85 1.97 1.95 1.91 1.87 1.87 1.80 1.77 1.75 1.76 1.75 1.79 1.80 1.81 1.84 1.97 1.99 2.12 2.04 1.92
0.02 0.05 0.07 0.08 0.10 0.07 0.05 0.11 0.18 0.21 0.24 0.23 0.21 0.20 0.18 0.17 0.19 0.21 0.23 0.29 0.36 0.40 0.54 0.71 0.89 1.16 1.33 1.44 1.56 1.73 1.86 1.89 1.89 1.86 1.87 1.85 1.81 1.70 1.63 1.62 1.65 1.75 1.87 1.89 1.93 2.00 2.16 2.18 2.14
0.02 0.06 0.12 0.13 0.17 0.16 0.13 0.24 0.34 0.31 0.26 0.22 0.21 0.21 0.19 0.22 0.27 0.28 0.38 0.52 0.60 0.64 0.72 0.86 0.94 1.10 1.20 1.24 1.33 1.46 1.52 1.56 1.60 1.57 1.53 1.47 1.42 1.39 1.42 1.52 1.58 1.69 1.81 1.85 1.89 1.97 1.96 2.02 2.19
0.01 0.05 0.17 0.21 0.23 0.24 0.24 0.45 0.50 0.37 0.30 0.27 0.24 0.21 0.24 0.33 0.42 0.54 0.67 0.77 0.84 0.85 0.81 0.82 0.95 0.99 0.97 0.99 1.00 1.12 1.18 1.23 1.27 1.25 1.21 1.22 1.24 1.26 1.22 1.27 1.37 1.55 1.73 1.80 1.81 1.76 1.73 1.77 1.91
0.02 0.06 0.11 0.22 0.20 0.22 0.32 0.61 0.61 0.38 0.32 0.28 0.25 0.26 0.32 0.46 0.66 0.89 1.07 1.18 1.26 1.17 0.98 0.83 0.83 0.82 0.80 0.84 0.88 0.92 0.99 1.02 1.02 1.04 0.99 1.07 1.08 1.04 0.98 1.00 1.08 1.17 1.39 1.60 1.70 1.59 1.50 1.48 1.56
0.05 0.10 0.19 0.35 0.40 0.37 0.44 0.66 0.68 0.51 0.41 0.35 0.36 0.46 0.62 0.82 1.09 1.34 1.59 1.70 1.68 1.49 1.22 0.94 0.79 0.74 0.70 0.72 0.76 0.81 0.84 0.85 0.81 0.84 0.79 0.82 0.87 0.87 0.86 0.84 0.87 0.98 1.09 1.27 1.44 1.48 1.42 1.38 1.38
0.11 0.19 0.27 0.41 0.48 0.58 0.68 0.84 0.74 0.69 0.64 0.61 0.68 0.86 1.07 1.34 1.52 1.66 1.81 1.86 1.60 1.42 1.17 0.92 0.77 0.79 0.78 0.78 0.77 0.77 0.74 0.70 0.69 0.69 0.66 0.64 0.66 0.66 0.71 0.83 0.85 0.90 0.97 1.11 1.31 1.43 1.42 1.34 1.33
0.24 0.38 0.52 0.74 0.71 0.68 0.85 0.96 0.76 0.71 0.79 0.83 0.94 1.00 1.10 1.25 1.27 1.35 1.41 1.36 1.32 1.27 1.10 0.94 0.85 0.85 0.88 0.88 0.86 0.78 0.69 0.64 0.64 0.62 0.55 0.52 0.48 0.47 0.57 0.65 0.68 0.71 0.73 0.86 1.06 1.22 1.25 1.21 1.14